[[{"header":{"parameterUnit":"m.s-1","parameterCategory":1,"la1":30.2991,"la2":30.254,"lo1":-89.0895,"lo2":-89.0444,"dy":0.0017,"dx":0.0017,"nx":28,"ny":28,"refTime":"2025-07-10T09:00:00:Z","depth":0,"parameterNumber":2,"parameterNumberName":"U-component_of_WINDS"},"data":[0,0,0,0,0,0,0,0,0,0,0,0,0,0,0,0,0,0,0,0,0,0,0,0,0,0,0,0,0,0,0,0,0,0,0,0,0,0,0,0,0,0,0,0,0,0,0,0,0,0,0,0,0,0,0,0,0,0,4.1642,4.1643,0,4.178,4.1782,4.1784,4.1756,4.1753,4.1751,4.1748,4.1897,4.1903,4.1909,0,0,0,0,0,0,0,0,0,0,0,0,0,4.1359,4.1365,4.1642,4.1644,4.1645,4.178,4.1782,4.1784,4.1756,4.1753,4.175,4.1747,4.1895,4.1902,4.191,0,0,0,0,0,0,0,0,0,0,0,0,0,4.1489,4.1366,4.1642,4.1648,4.1649,4.178,4.1782,4.1784,4.1757,4.1753,4.1749,4.1746,4.1892,4.1901,4.1911,4.2046,0,0,4.194,4.1944,0,0,0,0,0,0,0,0,4.1481,4.1499,4.1645,4.1647,4.165,4.1747,4.1737,4.1872,4.1758,4.1716,4.1748,4.1744,4.185,4.1863,4.1898,4.2053,4.2059,4.1941,4.1946,4.195,4.1953,0,0,0,0,0,0,0,4.1472,4.1493,4.1697,4.1647,4.165,4.1645,4.1659,4.1762,4.1803,4.172,4.1718,4.1734,4.1851,4.1889,4.1901,4.2061,4.194,4.1949,4.1955,4.1958,4.2335,4.2339,0,0,0,0,0,0,4.146,4.1486,4.1692,4.1701,4.1554,4.1653,4.1669,4.172,4.1802,4.1811,4.1737,4.1732,4.1874,4.189,4.1906,4.2071,4.195,4.1959,4.1965,4.2331,4.2336,4.2341,0,0,0,0,0,0,4.1454,4.1479,4.1687,4.1593,4.1619,4.1662,4.1719,4.1724,4.1762,4.1815,4.1823,4.1768,4.1872,4.1893,4.2011,4.2075,4.1963,4.1972,4.2326,4.2333,4.2338,4.24,0,0,0,0,0,0,4.1446,4.1477,4.1528,4.1594,4.1624,4.1788,4.1723,4.173,4.1777,4.1772,4.1846,4.1855,4.187,4.1997,4.202,4.2086,4.198,4.232,4.2329,4.2336,4.2393,4.2408,4.2421,0,0,0,0,0,4.1436,4.1541,4.153,4.1555,4.1688,4.1792,4.1809,4.1823,4.1783,4.1835,4.1869,4.1852,4.2064,4.2009,4.2035,4.2105,4.2316,4.2326,4.2336,4.2386,4.2405,4.2421,0,0,0,0,0,0,4.1483,4.155,4.1539,4.1667,4.1724,4.1787,4.1853,4.1842,4.1913,4.1906,4.1922,4.1939,4.206,4.2094,4.2032,4.2241,4.2185,4.22,4.2214,4.2232,4.2246,4.2237,4.1987,0,0,0,0,0,4.1508,4.1585,4.1639,4.1748,4.1776,4.181,4.1856,4.1861,4.1921,4.1946,4.1989,4.205,4.213,4.2183,4.2259,4.2397,4.2413,4.2458,4.2472,4.2483,4.2497,4.2574,4.2594,4.2373,4.2373,4.2372,0,0,4.1561,4.1607,4.1655,4.1758,4.1803,4.1884,4.183,4.1919,4.198,4.196,4.2074,4.2108,4.2177,4.2305,4.2364,4.2338,4.2562,4.2496,4.2504,4.2512,4.2586,4.2607,4.2625,4.2379,4.2378,4.2377,0,0,4.17,4.1741,4.1836,4.1881,4.1948,4.1969,4.1992,4.2057,4.2078,4.2192,4.2179,4.2253,4.239,4.244,4.2483,4.2639,4.2627,4.2664,4.2739,4.2814,4.2831,4.2847,4.2904,4.2925,4.2677,4.2677,4.2677,0,4.1758,4.1878,4.1887,4.1977,4.2023,4.2006,4.2104,4.2148,4.2237,4.2271,4.2239,4.2411,4.2456,4.2597,4.2635,4.267,4.2698,4.2657,4.2827,4.2843,4.2858,4.2913,4.2935,4.2682,4.2681,4.2681,4.268,0,4.1947,4.2031,4.21,4.2185,4.2239,4.2332,4.2357,4.2411,4.2411,4.2437,4.2554,4.2607,4.2694,4.2727,4.273,4.2869,4.2851,4.2823,4.2768,4.2883,4.2935,4.2956,4.2687,4.2686,4.2685,4.2684,0,0,4.2122,4.2209,4.2234,4.2273,4.2345,4.241,4.2503,4.2586,4.2633,4.2695,4.2775,4.2891,4.2865,4.2915,4.2922,4.2987,4.3109,4.2952,4.2954,4.2981,4.3268,4.329,4.3314,4.31,4.3104,4.3108,4.3263,0,4.2269,4.243,4.2441,4.2588,4.2666,4.265,4.2731,4.2785,4.2811,4.2883,4.2912,4.2994,4.2953,4.2983,4.3046,4.3081,4.3168,4.307,4.3177,4.3181,4.3163,4.3341,4.3364,4.3508,4.3283,4.3286,4.3289,0,4.2462,4.2528,4.2682,4.2743,4.2776,4.2849,4.2926,4.2994,4.3055,4.3069,4.3123,4.3121,4.3219,4.3157,4.3293,4.3226,4.327,4.3294,4.33,4.3312,4.3244,4.336,4.3554,4.3577,4.3321,4.3318,4.3316,0,4.2577,4.2704,4.2812,4.2846,4.2919,4.297,4.3003,4.3061,4.311,4.3178,4.321,4.3289,4.3333,4.3395,4.3415,4.3368,4.3551,4.3491,4.3567,4.3567,4.3609,4.3606,4.3815,4.3634,4.3633,4.3633,4.3632,0,4.2741,4.2837,4.2865,4.2932,4.3039,4.305,4.3157,4.3187,4.3238,4.3312,4.3303,4.3374,4.3395,4.3469,4.3486,4.3596,4.3616,4.3632,4.3636,4.3634,4.3632,4.3665,4.3657,4.3639,4.3637,4.3636,4.3635,0,4.2888,4.291,4.3028,4.3087,4.3104,4.318,4.3232,4.3297,4.332,4.3415,4.3438,4.3475,4.3562,4.3588,4.3693,4.3704,4.3834,4.3828,4.3813,4.3814,4.389,4.3883,4.4129,4.4162,4.3957,4.3959,4.3961,0,4.2993,4.3066,4.3131,4.3179,4.3214,4.3292,4.3341,4.3355,4.3407,4.3482,4.3539,4.3625,4.3694,4.3835,4.3873,4.3954,4.395,4.4031,4.3963,4.3959,4.3954,4.395,4.3959,4.4045,4.4047,4.4049,4.405,0,4.3177,4.3184,4.3255,4.333,4.3388,4.3448,4.3506,4.3546,4.3568,4.3628,4.3716,4.3769,4.3876,4.3962,4.4043,4.408,4.407,4.407,4.4093,4.4093,4.4083,4.4091,4.3851,4.4066,4.4064,4.4063,4.4062,4.4061,4.3308,4.3372,4.3428,4.3507,4.3551,4.3605,4.367,4.37,4.3773,4.3859,4.3863,4.3959,4.4018,4.4126,4.4167,4.4243,4.422,4.4252,4.426,4.4269,4.4276,4.4068,4.4258,4.4257,4.4257,4.4257,4.4256,0,4.3494,4.3528,4.36,4.368,4.3743,4.3724,4.3787,4.3841,4.3925,4.398,4.4048,4.4149,4.4232,4.4275,4.4358,4.4411,4.4409,4.4433,4.443,4.4439,4.4291,4.4264,4.4433,4.4433,4.4433,4.4433,4.4433,4.4433,4.3598,4.3706,4.3719,4.3849,4.3883,4.3975,4.4013,4.4063,4.4107,4.422,4.4288,4.4314,4.4365,4.4451,4.4527,4.4538,4.457,4.4597,4.4606,4.4467,4.4449,4.4432,4.4407,4.4603,4.4604,4.4747,4.4749,4.475]},{"header":{"parameterUnit":"m.s-1","parameterCategory":1,"la1":30.2991,"la2":30.254,"lo1":-89.0895,"lo2":-89.0444,"dy":0.0017,"dx":0.0017,"nx":28,"ny":28,"refTime":"2025-07-10T09:00:00:Z","depth":0,"parameterNumber":3,"parameterNumberName":"V-component_of_WINDS"},"data":[0,0,0,0,0,0,0,0,0,0,0,0,0,0,0,0,0,0,0,0,0,0,0,0,0,0,0,0,0,0,0,0,0,0,0,0,0,0,0,0,0,0,0,0,0,0,0,0,0,0,0,0,0,0,0,0,0,0,-0.6375,-0.6375,0,-0.6411,-0.6412,-0.6412,-0.6425,-0.6425,-0.6425,-0.6425,-0.6462,-0.6463,-0.6464,0,0,0,0,0,0,0,0,0,0,0,0,0,-0.6317,-0.6318,-0.6375,-0.6375,-0.6376,-0.6411,-0.6412,-0.6412,-0.6425,-0.6425,-0.6425,-0.6425,-0.6462,-0.6463,-0.6464,0,0,0,0,0,0,0,0,0,0,0,0,0,-0.6347,-0.6319,-0.6375,-0.6387,-0.6388,-0.6411,-0.6412,-0.6412,-0.6425,-0.6425,-0.6425,-0.6425,-0.6461,-0.6463,-0.6465,-0.6479,0,0,-0.647,-0.6471,0,0,0,0,0,0,0,0,-0.6345,-0.6349,-0.6384,-0.6386,-0.6387,-0.6413,-0.6405,-0.6435,-0.6425,-0.6411,-0.6425,-0.6425,-0.6446,-0.6449,-0.6456,-0.6481,-0.6482,-0.647,-0.6471,-0.6472,-0.6472,0,0,0,0,0,0,0,-0.6343,-0.6348,-0.6389,-0.6385,-0.6387,-0.639,-0.6394,-0.6411,-0.6429,-0.6412,-0.6413,-0.6417,-0.6447,-0.6455,-0.6457,-0.6483,-0.647,-0.6471,-0.6472,-0.6473,-0.6522,-0.6522,0,0,0,0,0,0,-0.6339,-0.6346,-0.6388,-0.639,-0.6365,-0.6391,-0.6396,-0.6405,-0.6429,-0.6433,-0.6418,-0.6418,-0.6452,-0.6455,-0.6459,-0.6477,-0.6472,-0.6473,-0.6474,-0.6521,-0.6522,-0.6522,0,0,0,0,0,0,-0.6338,-0.6343,-0.6387,-0.6368,-0.6374,-0.6393,-0.6403,-0.6406,-0.6414,-0.6433,-0.6436,-0.6422,-0.6452,-0.6456,-0.6474,-0.6479,-0.6474,-0.6476,-0.6521,-0.6521,-0.6522,-0.6514,0,0,0,0,0,0,-0.6336,-0.6342,-0.6348,-0.6368,-0.6375,-0.6401,-0.6403,-0.6407,-0.6417,-0.6417,-0.6438,-0.6441,-0.6452,-0.6471,-0.6476,-0.6481,-0.6477,-0.6521,-0.6521,-0.6522,-0.6514,-0.6515,-0.6515,0,0,0,0,0,-0.6334,-0.6344,-0.6348,-0.6353,-0.6382,-0.6401,-0.6405,-0.6417,-0.6417,-0.6423,-0.6435,-0.6441,-0.6478,-0.6473,-0.6478,-0.6484,-0.652,-0.6521,-0.6522,-0.6514,-0.6515,-0.6515,0,0,0,0,0,0,-0.6323,-0.6347,-0.6351,-0.6368,-0.6383,-0.6403,-0.6411,-0.6417,-0.6432,-0.6432,-0.6446,-0.6451,-0.6467,-0.6478,-0.6472,-0.6499,-0.6499,-0.6501,-0.6492,-0.6493,-0.6493,-0.649,-0.6478,0,0,0,0,0,-0.6323,-0.6336,-0.6356,-0.6369,-0.6376,-0.6392,-0.6401,-0.6409,-0.6425,-0.6431,-0.6445,-0.646,-0.6475,-0.6484,-0.6499,-0.6516,-0.6521,-0.6523,-0.6523,-0.6523,-0.6524,-0.6534,-0.6536,-0.6524,-0.6524,-0.6524,0,0,-0.6322,-0.6336,-0.6344,-0.6367,-0.6379,-0.6393,-0.6397,-0.6412,-0.6422,-0.6433,-0.6451,-0.6461,-0.6479,-0.6497,-0.6505,-0.6505,-0.6529,-0.6524,-0.6524,-0.6525,-0.6535,-0.6536,-0.6537,-0.6525,-0.6524,-0.6524,0,0,-0.6327,-0.6339,-0.6352,-0.6364,-0.6383,-0.6393,-0.6396,-0.6417,-0.6424,-0.6442,-0.6451,-0.6464,-0.6489,-0.6502,-0.6511,-0.6523,-0.6528,-0.6527,-0.6528,-0.6538,-0.6539,-0.654,-0.6544,-0.6545,-0.6528,-0.6528,-0.6528,0,-0.6324,-0.6345,-0.6357,-0.6372,-0.6382,-0.6393,-0.6406,-0.6417,-0.6439,-0.6446,-0.6446,-0.6479,-0.6492,-0.6513,-0.6516,-0.6523,-0.6527,-0.6524,-0.6538,-0.6539,-0.654,-0.6544,-0.6545,-0.6528,-0.6528,-0.6528,-0.6528,0,-0.634,-0.6354,-0.6362,-0.6383,-0.6395,-0.6408,-0.6423,-0.6433,-0.6441,-0.6451,-0.647,-0.6486,-0.6504,-0.651,-0.6517,-0.6532,-0.6532,-0.6535,-0.6535,-0.654,-0.6544,-0.6546,-0.6528,-0.6528,-0.6528,-0.6528,0,0,-0.6338,-0.6367,-0.637,-0.638,-0.6402,-0.6413,-0.6428,-0.6446,-0.6454,-0.647,-0.6482,-0.6504,-0.6507,-0.6518,-0.6527,-0.6535,-0.6544,-0.6537,-0.6538,-0.6538,-0.6562,-0.6559,-0.6561,-0.6548,-0.6548,-0.6549,-0.656,0,-0.6347,-0.6372,-0.6385,-0.6405,-0.6419,-0.643,-0.6442,-0.6457,-0.6468,-0.6482,-0.6494,-0.6509,-0.6512,-0.6519,-0.6528,-0.6541,-0.6549,-0.654,-0.656,-0.656,-0.6555,-0.6563,-0.656,-0.657,-0.6562,-0.6562,-0.6562,0,-0.6359,-0.6375,-0.6397,-0.6417,-0.6424,-0.6434,-0.6453,-0.6465,-0.6483,-0.649,-0.6503,-0.6511,-0.6527,-0.6527,-0.6549,-0.6543,-0.6552,-0.656,-0.6561,-0.6563,-0.6561,-0.6565,-0.6574,-0.6575,-0.6565,-0.6565,-0.6565,0,-0.6357,-0.6383,-0.6399,-0.6408,-0.6432,-0.644,-0.645,-0.6467,-0.6478,-0.6494,-0.6501,-0.6518,-0.6528,-0.6542,-0.6555,-0.6553,-0.6576,-0.6577,-0.6583,-0.6583,-0.6587,-0.6586,-0.6597,-0.6593,-0.6593,-0.6593,-0.6593,0,-0.6364,-0.6377,-0.6398,-0.6408,-0.6424,-0.6438,-0.6453,-0.6464,-0.6479,-0.6492,-0.6503,-0.6515,-0.6532,-0.6546,-0.6557,-0.6574,-0.6578,-0.6585,-0.6588,-0.6584,-0.6583,-0.659,-0.6589,-0.6593,-0.6593,-0.6593,-0.6593,0,-0.6363,-0.6378,-0.6397,-0.6419,-0.6424,-0.6435,-0.6453,-0.6464,-0.6476,-0.6492,-0.6496,-0.6515,-0.6532,-0.6547,-0.657,-0.6578,-0.6595,-0.6598,-0.6589,-0.6591,-0.6596,-0.6595,-0.6611,-0.6614,-0.6608,-0.6608,-0.6608,0,-0.6367,-0.6377,-0.6401,-0.641,-0.642,-0.6435,-0.6446,-0.6461,-0.6472,-0.6493,-0.6501,-0.6519,-0.6535,-0.6562,-0.6577,-0.6595,-0.6599,-0.6603,-0.6602,-0.6598,-0.6599,-0.6598,-0.66,-0.6603,-0.6603,-0.6603,-0.6603,0,-0.6373,-0.638,-0.6395,-0.6413,-0.6425,-0.644,-0.6455,-0.6462,-0.648,-0.6492,-0.651,-0.6522,-0.6545,-0.6564,-0.6583,-0.6594,-0.6602,-0.6604,-0.6606,-0.6602,-0.6597,-0.66,-0.6589,-0.6603,-0.6603,-0.6603,-0.6603,-0.6603,-0.6374,-0.6384,-0.6402,-0.6419,-0.6432,-0.6446,-0.6457,-0.647,-0.6485,-0.6506,-0.6514,-0.6532,-0.655,-0.6577,-0.6589,-0.6604,-0.6605,-0.6608,-0.6609,-0.661,-0.6609,-0.6594,-0.6607,-0.6607,-0.6607,-0.6607,-0.6607,0,-0.638,-0.6393,-0.6408,-0.6429,-0.6442,-0.6448,-0.6465,-0.6476,-0.6492,-0.6508,-0.6523,-0.6544,-0.6562,-0.6579,-0.6598,-0.6607,-0.6611,-0.6611,-0.6611,-0.6613,-0.6607,-0.6603,-0.6608,-0.6608,-0.6608,-0.6608,-0.6608,-0.6608,-0.6385,-0.6402,-0.6411,-0.6435,-0.6447,-0.6465,-0.6475,-0.6488,-0.6501,-0.6524,-0.6539,-0.655,-0.6567,-0.6587,-0.6604,-0.6609,-0.6615,-0.6614,-0.662,-0.6614,-0.6614,-0.6613,-0.661,-0.6616,-0.6616,-0.6625,-0.6625,-0.6625]}]]